Precipitable_Water
1.26 1.20 1.10 0.96 0.88 0.84 0.83 0.81 0.83 0.87 0.94 0.97 1.00 1.04 1.04 1.08 1.11 1.12 1.11 1.12 1.09 1.06 1.05 1.05 1.18 1.32 1.36 1.39 1.43 1.45 1.47 1.48 1.50 1.51 1.52 1.50 1.49 1.49 1.48 1.45 1.42 1.40 1.42 1.45 1.38 1.39 1.34 1.27 1.30 1.21 1.13 1.14 1.15 1.08 1.04 1.02 1.03 1.16 1.27 1.32 1.32 1.28 1.19 1.09 0.95 0.87 0.79 0.80 0.78 0.76 0.78 0.81 0.86 0.90 0.99 1.04 1.14 1.29 1.38 1.26 1.17 1.11 1.04 1.07 1.11
1.19 1.25 1.08 0.99 0.90 0.85 0.83 0.82 0.83 0.88 0.93 0.96 0.99 1.02 1.04 1.05 1.09 1.09 1.11 1.11 1.08 1.08 1.09 1.16 1.29 1.37 1.43 1.44 1.45 1.45 1.46 1.50 1.52 1.52 1.53 1.55 1.53 1.51 1.49 1.46 1.43 1.39 1.38 1.39 1.35 1.39 1.32 1.24 1.15 1.12 1.10 1.08 1.04 0.98 0.90 0.87 0.86 0.82 0.85 0.93 1.00 1.02 1.00 0.91 0.82 0.77 0.91 0.91 0.88 0.82 0.77 0.80 0.85 0.90 0.99 1.10 1.21 1.32 1.28 1.18 1.14 1.07 1.02 1.01 1.01
1.30 1.18 1.13 1.00 0.93 0.86 0.86 0.83 0.83 0.87 0.93 0.95 0.97 1.02 1.03 1.05 1.06 1.07 1.11 1.10 1.07 1.10 1.14 1.25 1.35 1.42 1.43 1.45 1.45 1.47 1.47 1.50 1.52 1.51 1.52 1.54 1.54 1.52 1.48 1.43 1.40 1.39 1.33 1.27 1.28 1.32 1.26 1.20 1.10 1.07 1.08 1.12 1.10 1.03 0.96 0.90 0.84 0.82 0.78 0.75 0.78 0.82 0.78 0.74 0.79 0.94 0.99 0.96 0.95 0.91 0.80 0.73 0.80 0.83 0.97 1.12 1.21 1.21 1.16 1.09 1.07 1.05 0.98 0.96 0.94
1.30 1.16 1.13 1.05 0.96 0.87 0.85 0.84 0.84 0.85 0.91 0.96 0.97 1.00 1.03 1.04 1.05 1.08 1.09 1.08 1.09 1.11 1.21 1.32 1.40 1.42 1.43 1.45 1.46 1.47 1.50 1.50 1.50 1.52 1.53 1.52 1.50 1.49 1.45 1.39 1.38 1.37 1.32 1.26 1.29 1.28 1.24 1.14 1.09 1.10 1.14 1.14 1.08 0.99 0.95 0.90 0.84 0.75 0.68 0.64 0.64 0.61 0.62 0.75 0.91 1.02 1.05 1.06 1.02 0.95 0.90 0.72 0.74 0.82 0.94 1.04 1.04 1.02 0.98 0.97 0.99 0.99 0.97 0.95 0.92
1.30 1.14 1.10 1.06 0.99 0.90 0.85 0.84 0.85 0.85 0.88 0.94 0.97 0.98 1.01 1.02 1.05 1.06 1.06 1.06 1.10 1.15 1.27 1.38 1.40 1.41 1.44 1.46 1.47 1.47 1.49 1.50 1.49 1.49 1.50 1.51 1.48 1.46 1.42 1.37 1.34 1.35 1.34 1.30 1.24 1.24 1.15 1.07 1.10 1.13 1.16 1.12 1.02 0.94 0.89 0.84 0.76 0.70 0.65 0.61 0.60 0.60 0.75 0.88 0.94 1.00 1.12 1.09 1.08 1.01 0.93 0.81 0.70 0.76 0.84 0.89 0.90 0.89 0.88 0.90 0.95 0.95 0.93 0.90 0.87
1.32 1.11 1.10 1.06 1.00 0.93 0.86 0.84 0.85 0.84 0.88 0.94 0.96 0.98 1.00 0.99 0.99 1.02 1.03 1.05 1.11 1.22 1.34 1.39 1.40 1.44 1.45 1.44 1.44 1.46 1.48 1.48 1.49 1.48 1.49 1.50 1.47 1.43 1.39 1.35 1.32 1.33 1.34 1.31 1.28 1.23 1.15 1.06 1.10 1.17 1.15 1.04 0.92 0.89 0.85 0.81 0.76 0.69 0.60 0.62 0.66 0.73 0.85 0.90 0.93 1.01 1.07 1.18 1.13 1.09 0.98 0.80 0.72 0.72 0.76 0.77 0.78 0.78 0.78 0.81 0.84 0.86 0.89 0.88 0.84
1.23 1.13 1.10 1.07 1.02 0.95 0.87 0.84 0.86 0.85 0.88 0.94 0.96 0.96 0.97 0.98 0.96 0.98 1.02 1.06 1.15 1.32 1.36 1.39 1.42 1.43 1.44 1.43 1.43 1.44 1.44 1.45 1.47 1.48 1.48 1.48 1.46 1.42 1.36 1.32 1.29 1.24 1.24 1.24 1.19 1.17 1.16 1.11 1.10 1.11 1.03 0.95 0.89 0.87 0.85 0.81 0.74 0.65 0.60 0.66 0.72 0.84 0.89 0.96 0.99 1.02 1.09 1.11 1.13 1.10 0.95 0.83 0.70 0.66 0.72 0.75 0.77 0.80 0.81 0.79 0.81 0.84 0.84 0.84 0.81
1.31 1.15 1.11 1.08 1.02 0.95 0.88 0.85 0.86 0.86 0.88 0.93 0.94 0.96 0.96 0.96 0.96 0.97 1.00 1.07 1.24 1.33 1.37 1.39 1.42 1.43 1.42 1.42 1.41 1.41 1.42 1.43 1.44 1.44 1.44 1.43 1.41 1.38 1.35 1.31 1.27 1.23 1.16 1.15 1.15 1.08 1.05 1.03 1.00 0.97 0.94 0.90 0.90 0.88 0.87 0.84 0.77 0.67 0.65 0.70 0.80 0.84 0.92 0.95 1.00 1.05 1.10 1.13 1.13 1.02 0.88 0.84 0.72 0.73 0.77 0.78 0.79 0.83 0.87 0.84 0.78 0.79 0.81 0.82 0.80
1.33 1.21 1.15 1.10 1.01 0.94 0.89 0.86 0.87 0.87 0.89 0.92 0.92 0.92 0.94 0.95 0.94 0.96 1.03 1.16 1.28 1.33 1.35 1.38 1.40 1.42 1.41 1.41 1.39 1.40 1.40 1.40 1.41 1.42 1.40 1.38 1.35 1.34 1.33 1.30 1.25 1.19 1.12 1.07 1.05 1.02 0.96 0.97 0.99 0.94 0.90 0.91 0.91 0.91 0.89 0.86 0.81 0.73 0.76 0.82 0.89 0.97 0.99 1.07 1.07 1.11 1.13 1.14 1.08 0.92 0.89 0.81 0.73 0.73 0.79 0.83 0.84 0.83 0.83 0.83 0.77 0.73 0.73 0.73 0.72
1.35 1.28 1.19 1.08 1.03 0.97 0.90 0.88 0.90 0.89 0.89 0.91 0.91 0.92 0.93 0.93 0.95 1.02 1.14 1.24 1.29 1.32 1.34 1.37 1.38 1.40 1.41 1.39 1.38 1.37 1.36 1.36 1.35 1.35 1.32 1.30 1.31 1.30 1.27 1.24 1.20 1.15 1.09 1.04 1.01 0.99 0.98 0.98 0.97 0.93 0.92 0.93 0.92 0.94 0.92 0.89 0.80 0.83 0.89 0.94 1.00 1.01 0.99 0.95 0.97 0.98 1.01 1.02 0.93 0.90 0.90 0.79 0.75 0.71 0.79 0.82 0.89 0.89 0.85 0.82 0.76 0.77 0.79 0.77 0.77
1.41 1.31 1.18 1.10 1.06 0.98 0.92 0.90 0.92 0.91 0.89 0.89 0.89 0.92 0.94 0.98 1.04 1.13 1.21 1.27 1.30 1.31 1.33 1.35 1.37 1.36 1.36 1.37 1.35 1.31 1.29 1.28 1.27 1.26 1.24 1.22 1.21 1.19 1.17 1.14 1.11 1.05 1.02 1.00 1.02 1.02 1.02 0.95 0.93 0.94 0.96 0.97 0.96 0.95 0.94 0.89 0.82 0.87 0.96 1.04 1.05 1.06 1.08 1.10 1.12 1.15 1.14 0.93 0.88 0.90 0.90 0.89 0.80 0.81 0.85 0.86 0.88 0.88 0.88 0.86 0.85 0.86 0.85 0.85 0.85
1.44 1.39 1.26 1.15 1.05 0.99 0.94 0.94 0.93 0.94 0.90 0.90 0.91 0.98 1.05 1.10 1.14 1.18 1.24 1.28 1.29 1.30 1.33 1.33 1.33 1.33 1.34 1.32 1.29 1.23 1.18 1.15 1.14 1.11 1.11 1.11 1.09 1.05 1.05 1.06 1.04 1.00 0.95 0.94 0.99 1.01 0.99 0.95 0.90 0.97 1.02 0.99 1.00 0.97 0.92 0.88 0.89 0.93 0.99 1.05 1.06 1.06 1.08 1.13 1.18 1.23 1.21 1.11 1.05 1.00 0.92 0.85 0.81 0.87 0.93 0.92 0.91 0.91 0.92 0.94 0.93 0.91 0.91 0.90 0.88
1.44 1.50 1.30 1.16 1.07 1.01 0.96 0.95 0.95 0.96 0.95 0.94 1.02 1.11 1.15 1.17 1.19 1.20 1.25 1.28 1.28 1.29 1.29 1.31 1.31 1.31 1.30 1.28 1.23 1.18 1.15 1.09 1.02 0.99 0.96 0.97 0.97 0.93 0.91 0.93 0.95 0.94 0.90 0.90 0.94 0.98 0.96 0.97 0.94 0.99 1.00 1.04 1.02 0.98 0.94 0.86 0.87 0.94 0.98 1.01 1.07 1.09 1.13 1.18 1.22 1.24 1.11 1.03 0.98 0.92 0.93 0.85 0.82 0.89 0.93 0.94 0.93 0.94 0.93 0.92 0.93 0.93 0.93 0.91 0.91
1.45 1.47 1.27 1.19 1.10 1.03 0.97 0.94 0.96 0.98 0.99 1.02 1.09 1.16 1.18 1.18 1.18 1.23 1.26 1.28 1.29 1.28 1.27 1.28 1.29 1.29 1.27 1.23 1.20 1.17 1.10 1.03 0.95 0.88 0.87 0.86 0.84 0.84 0.87 0.87 0.88 0.87 0.89 0.87 0.90 0.97 0.98 0.98 1.00 1.00 1.02 1.03 1.03 0.99 0.95 0.89 0.86 0.90 0.94 0.97 1.00 1.04 1.09 1.13 1.15 1.12 1.04 1.10 1.09 0.97 0.90 0.84 0.85 0.91 0.92 0.92 0.91 0.92 0.91 0.91 0.91 0.91 0.92 0.92 0.90
1.44 1.44 1.30 1.21 1.12 1.05 1.00 0.97 0.96 0.98 1.00 1.05 1.11 1.15 1.17 1.18 1.19 1.21 1.24 1.28 1.28 1.27 1.27 1.28 1.29 1.28 1.24 1.19 1.16 1.12 1.06 1.02 0.95 0.88 0.86 0.84 0.81 0.79 0.80 0.82 0.83 0.84 0.85 0.86 0.91 0.97 1.02 0.98 0.99 0.99 0.99 1.02 1.01 1.00 0.96 0.90 0.87 0.90 0.92 0.95 1.01 1.09 1.14 1.12 1.14 1.18 1.20 1.28 1.23 1.13 0.95 0.86 0.89 0.89 0.92 0.89 0.87 0.89 0.88 0.89 0.89 0.89 0.88 0.88 0.88
1.49 1.45 1.28 1.21 1.13 1.08 1.05 1.01 0.98 0.99 1.00 1.05 1.10 1.13 1.16 1.19 1.21 1.21 1.24 1.27 1.28 1.27 1.28 1.29 1.28 1.24 1.20 1.18 1.16 1.12 1.06 1.01 0.94 0.87 0.85 0.84 0.83 0.80 0.77 0.80 0.85 0.84 0.85 0.90 0.94 1.00 1.00 0.97 0.98 1.00 0.98 0.98 1.01 1.00 1.00 0.94 0.90 0.89 0.94 0.98 1.02 1.05 1.11 1.19 1.25 1.31 1.15 1.14 1.13 1.08 1.02 0.89 0.93 0.91 0.91 0.91 0.90 0.84 0.88 0.85 0.84 0.87 0.87 0.85 0.84
1.50 1.48 1.24 1.21 1.14 1.09 1.06 1.04 1.00 0.98 1.02 1.04 1.08 1.12 1.16 1.19 1.21 1.23 1.24 1.25 1.27 1.29 1.29 1.28 1.23 1.20 1.20 1.18 1.15 1.10 1.04 0.98 0.94 0.87 0.84 0.86 0.85 0.81 0.78 0.80 0.85 0.87 0.89 0.91 0.94 0.97 0.98 0.97 0.97 0.99 0.99 0.99 1.02 1.02 0.99 1.00 0.96 0.96 0.97 1.01 1.06 1.09 1.12 1.19 1.22 1.17 1.17 1.17 1.30 1.17 1.07 1.02 0.97 0.94 0.97 0.97 0.91 0.92 0.87 0.86 0.85 0.83 0.82 0.83 0.83
1.49 1.46 1.23 1.19 1.16 1.12 1.11 1.07 1.05 1.03 1.04 1.07 1.09 1.12 1.17 1.20 1.21 1.24 1.25 1.24 1.27 1.28 1.28 1.24 1.21 1.20 1.17 1.13 1.09 1.05 1.01 0.93 0.89 0.86 0.84 0.85 0.86 0.84 0.79 0.78 0.81 0.83 0.86 0.88 0.93 0.97 0.97 1.00 1.00 0.99 1.01 1.03 1.03 1.03 1.03 1.01 1.00 0.97 0.99 1.02 1.06 1.07 1.07 1.13 1.13 1.12 1.10 1.19 1.26 1.20 1.15 1.04 0.99 0.94 0.96 0.98 0.95 0.92 0.90 0.88 0.89 0.86 0.82 0.81 0.81
1.42 1.31 1.22 1.20 1.17 1.16 1.13 1.11 1.09 1.07 1.05 1.05 1.08 1.11 1.14 1.18 1.21 1.24 1.25 1.25 1.27 1.27 1.26 1.22 1.20 1.17 1.14 1.07 1.06 1.05 1.00 0.94 0.90 0.87 0.84 0.84 0.84 0.86 0.83 0.78 0.78 0.82 0.86 0.88 0.93 0.98 1.00 1.00 1.01 1.04 1.04 1.05 1.06 1.05 1.06 1.06 1.02 1.01 1.03 1.06 1.09 1.11 1.14 1.15 1.19 1.26 1.29 1.27 1.21 1.20 1.13 1.00 0.95 0.96 1.00 0.98 0.98 0.99 0.95 0.92 0.90 0.88 0.87 0.85 0.82
1.29 1.17 1.17 1.21 1.19 1.14 1.12 1.14 1.15 1.12 1.09 1.04 1.06 1.08 1.13 1.18 1.22 1.25 1.25 1.24 1.28 1.27 1.24 1.21 1.19 1.17 1.14 1.11 1.11 1.08 1.07 1.02 0.97 0.94 0.89 0.86 0.88 0.88 0.85 0.81 0.77 0.81 0.81 0.86 0.93 0.99 1.01 1.02 1.04 1.07 1.10 1.08 1.08 1.08 1.08 1.05 1.05 1.03 1.00 1.02 1.08 1.10 1.14 1.19 1.21 1.17 1.25 1.22 1.14 1.11 1.07 0.97 0.94 0.98 1.02 1.02 1.00 1.02 1.02 0.99 0.93 0.92 0.92 0.88 0.88
1.19 1.21 1.22 1.25 1.19 1.13 1.17 1.19 1.18 1.18 1.19 1.13 1.07 1.08 1.10 1.15 1.20 1.24 1.24 1.26 1.29 1.25 1.20 1.22 1.18 1.14 1.14 1.19 1.22 1.24 1.22 1.18 1.25 1.10 0.95 0.94 0.88 0.86 0.85 0.83 0.79 0.76 0.80 0.80 0.89 0.95 0.98 1.02 1.02 1.05 1.11 1.10 1.12 1.12 1.08 1.07 1.05 1.06 1.02 1.00 1.02 1.08 1.09 1.11 1.20 1.18 1.22 1.21 1.20 1.19 1.14 1.00 0.96 0.98 1.00 1.03 1.05 1.03 1.03 1.01 0.99 1.00 0.98 0.97 0.96
1.30 1.30 1.35 1.35 1.30 1.32 1.28 1.25 1.24 1.27 1.28 1.23 1.15 1.10 1.08 1.13 1.15 1.20 1.25 1.30 1.28 1.25 1.20 1.17 1.17 1.14 1.19 1.26 1.32 1.32 1.29 1.35 1.35 1.26 1.19 1.07 0.95 0.85 0.85 0.84 0.81 0.76 0.77 0.80 0.80 0.86 0.90 0.95 0.98 1.00 1.07 1.12 1.08 1.10 1.09 1.08 1.07 1.07 1.04 1.02 0.98 1.06 1.17 1.15 1.19 1.23 1.20 1.25 1.27 1.29 1.22 1.07 0.98 0.97 0.99 1.02 1.06 1.08 1.07 1.04 1.05 1.03 1.03 1.01 1.02
1.28 1.34 1.39 1.46 1.50 1.47 1.44 1.35 1.31 1.35 1.34 1.32 1.21 1.11 1.06 1.06 1.07 1.19 1.27 1.27 1.27 1.21 1.22 1.24 1.23 1.14 1.23 1.30 1.33 1.32 1.34 1.30 1.37 1.33 1.21 1.15 1.04 0.95 0.89 0.87 0.83 0.80 0.76 0.74 0.77 0.78 0.82 0.84 0.89 0.95 0.98 1.02 1.07 1.10 1.14 1.17 1.14 1.18 1.17 1.13 1.04 1.08 1.16 1.23 1.19 1.21 1.19 1.32 1.35 1.33 1.30 1.15 1.08 1.03 0.99 1.01 1.04 1.08 1.10 1.09 1.08 1.07 1.05 1.04 1.05
1.35 1.37 1.41 1.53 1.57 1.55 1.54 1.49 1.47 1.49 1.43 1.36 1.25 1.11 1.08 1.05 1.04 1.20 1.25 1.30 1.26 1.27 1.31 1.31 1.33 1.31 1.23 1.28 1.29 1.23 1.23 1.24 1.23 1.25 1.24 1.14 1.12 1.05 0.99 0.96 0.94 0.93 0.88 0.79 0.72 0.73 0.72 0.74 0.79 0.84 0.88 0.93 0.96 1.04 1.17 1.21 1.30 1.35 1.31 1.25 1.16 1.24 1.23 1.24 1.18 1.23 1.31 1.41 1.32 1.35 1.29 1.20 1.18 1.15 1.09 1.03 1.04 1.08 1.09 1.09 1.09 1.11 1.08 1.08 1.08
1.44 1.48 1.50 1.50 1.56 1.57 1.56 1.56 1.58 1.54 1.48 1.40 1.25 1.21 1.20 1.08 1.10 1.22 1.28 1.31 1.29 1.32 1.30 1.29 1.35 1.36 1.31 1.26 1.20 1.08 1.09 1.05 0.99 1.04 1.11 1.20 1.21 1.22 1.21 1.15 1.19 1.07 1.11 0.95 1.01 0.85 0.90 0.86 0.78 0.81 0.85 0.83 0.85 0.94 1.12 1.25 1.34 1.38 1.35 1.31 1.30 1.30 1.34 1.29 1.25 1.22 1.28 1.36 1.37 1.36 1.36 1.31 1.27 1.23 1.20 1.12 1.07 1.08 1.11 1.10 1.09 1.12 1.12 1.09 1.11
1.51 1.47 1.51 1.52 1.56 1.59 1.59 1.56 1.54 1.51 1.46 1.41 1.34 1.30 1.24 1.17 1.16 1.20 1.27 1.28 1.27 1.25 1.23 1.31 1.35 1.34 1.30 1.19 1.13 0.98 1.03 1.10 0.95 1.17 1.22 1.28 1.27 1.30 1.32 1.33 1.32 1.23 1.24 1.22 1.22 1.22 1.18 1.11 1.09 1.05 1.01 0.97 0.96 0.97 1.05 1.21 1.31 1.31 1.28 1.27 1.29 1.33 1.33 1.26 1.25 1.24 1.28 1.35 1.38 1.40 1.41 1.39 1.35 1.32 1.29 1.26 1.18 1.12 1.12 1.12 1.12 1.12 1.13 1.13 1.12
1.43 1.50 1.52 1.55 1.58 1.58 1.55 1.53 1.50 1.49 1.46 1.42 1.39 1.36 1.30 1.27 1.26 1.21 1.22 1.24 1.24 1.22 1.21 1.27 1.31 1.33 1.19 1.06 0.95 1.00 1.14 1.26 1.28 1.32 1.37 1.36 1.43 1.46 1.51 1.46 1.38 1.39 1.34 1.27 1.32 1.36 1.27 1.18 1.15 1.14 1.14 1.13 1.09 1.09 1.15 1.18 1.14 1.14 1.17 1.23 1.28 1.30 1.29 1.26 1.26 1.27 1.28 1.40 1.45 1.43 1.45 1.47 1.42 1.39 1.39 1.38 1.31 1.21 1.16 1.16 1.15 1.15 1.14 1.16 1.17
1.41 1.45 1.49 1.51 1.53 1.51 1.53 1.51 1.48 1.45 1.42 1.42 1.35 1.33 1.37 1.33 1.27 1.28 1.24 1.28 1.26 1.19 1.20 1.20 1.22 1.16 1.07 0.99 1.02 1.15 1.26 1.30 1.40 1.44 1.51 1.50 1.49 1.52 1.54 1.52 1.42 1.43 1.43 1.34 1.30 1.35 1.34 1.28 1.26 1.25 1.23 1.25 1.22 1.14 1.07 1.13 1.22 1.27 1.20 1.10 1.14 1.16 1.21 1.23 1.25 1.27 1.27 1.38 1.45 1.47 1.46 1.47 1.46 1.42 1.44 1.45 1.41 1.34 1.24 1.19 1.19 1.19 1.15 1.18 1.20
1.40 1.42 1.45 1.47 1.49 1.51 1.51 1.47 1.43 1.41 1.40 1.37 1.27 1.28 1.31 1.33 1.31 1.30 1.27 1.25 1.22 1.19 1.18 1.17 1.10 1.03 1.01 1.05 1.18 1.24 1.32 1.42 1.51 1.51 1.39 1.40 1.54 1.54 1.47 1.44 1.46 1.38 1.44 1.44 1.39 1.35 1.32 1.28 1.24 1.23 1.22 1.17 1.20 1.19 1.15 1.09 1.09 1.16 1.18 1.21 1.17 1.14 1.16 1.18 1.19 1.18 1.22 1.29 1.30 1.32 1.37 1.37 1.40 1.44 1.47 1.48 1.49 1.44 1.34 1.24 1.21 1.22 1.20 1.18 1.19
1.39 1.42 1.45 1.45 1.48 1.51 1.48 1.43 1.41 1.41 1.37 1.31 1.25 1.28 1.31 1.29 1.25 1.24 1.22 1.19 1.18 1.18 1.14 1.08 1.01 0.96 1.01 1.17 1.28 1.33 1.39 1.44 1.51 1.51 1.45 1.48 1.47 1.46 1.49 1.47 1.44 1.42 1.38 1.40 1.39 1.34 1.29 1.31 1.32 1.27 1.24 1.26 1.23 1.26 1.26 1.19 1.13 1.10 1.08 1.11 1.17 1.21 1.18 1.16 1.20 1.26 1.24 1.22 1.23 1.26 1.29 1.30 1.33 1.38 1.41 1.44 1.48 1.51 1.47 1.33 1.23 1.23 1.24 1.25 1.23
1.39 1.39 1.43 1.46 1.49 1.49 1.44 1.40 1.39 1.41 1.35 1.27 1.28 1.30 1.32 1.25 1.21 1.26 1.18 1.16 1.18 1.14 1.07 1.02 1.12 1.16 1.24 1.35 1.42 1.48 1.52 1.51 1.52 1.50 1.53 1.45 1.41 1.40 1.37 1.37 1.34 1.36 1.33 1.28 1.31 1.26 1.24 1.24 1.20 1.25 1.25 1.24 1.22 1.25 1.22 1.20 1.22 1.23 1.19 1.15 1.16 1.22 1.25 1.27 1.33 1.39 1.38 1.32 1.31 1.28 1.24 1.26 1.28 1.30 1.34 1.41 1.46 1.51 1.53 1.43 1.28 1.25 1.26 1.28 1.28
1.37 1.38 1.45 1.50 1.48 1.45 1.40 1.37 1.38 1.36 1.31 1.30 1.31 1.26 1.26 1.23 1.21 1.15 1.09 1.18 1.18 1.16 1.14 1.22 1.25 1.31 1.38 1.47 1.54 1.58 1.54 1.51 1.55 1.47 1.40 1.37 1.33 1.30 1.29 1.33 1.33 1.32 1.32 1.28 1.25 1.30 1.27 1.25 1.23 1.27 1.26 1.20 1.19 1.21 1.25 1.20 1.18 1.19 1.20 1.18 1.16 1.18 1.22 1.29 1.30 1.31 1.40 1.39 1.38 1.40 1.35 1.26 1.26 1.27 1.27 1.30 1.35 1.46 1.58 1.54 1.40 1.30 1.28 1.27 1.31
1.44 1.48 1.49 1.48 1.45 1.41 1.36 1.37 1.38 1.33 1.32 1.28 1.28 1.25 1.25 1.24 1.20 1.12 1.22 1.29 1.27 1.30 1.33 1.39 1.42 1.53 1.58 1.60 1.60 1.57 1.53 1.50 1.47 1.39 1.30 1.37 1.33 1.27 1.30 1.31 1.29 1.31 1.28 1.28 1.25 1.24 1.23 1.22 1.24 1.26 1.24 1.26 1.24 1.21 1.25 1.27 1.22 1.24 1.25 1.21 1.23 1.25 1.24 1.23 1.22 1.26 1.32 1.39 1.42 1.47 1.43 1.44 1.36 1.29 1.26 1.27 1.33 1.47 1.55 1.59 1.51 1.40 1.35 1.31 1.31
1.43 1.49 1.47 1.42 1.44 1.42 1.41 1.40 1.38 1.32 1.33 1.28 1.23 1.27 1.29 1.30 1.36 1.44 1.45 1.44 1.48 1.50 1.51 1.58 1.58 1.57 1.60 1.62 1.59 1.56 1.53 1.50 1.39 1.30 1.27 1.29 1.28 1.23 1.29 1.25 1.29 1.28 1.24 1.25 1.23 1.24 1.25 1.23 1.20 1.18 1.17 1.16 1.15 1.17 1.18 1.19 1.26 1.26 1.25 1.27 1.23 1.22 1.24 1.24 1.22 1.23 1.28 1.32 1.39 1.46 1.50 1.53 1.53 1.41 1.34 1.30 1.29 1.38 1.44 1.53 1.57 1.48 1.43 1.38 1.35
1.46 1.45 1.42 1.42 1.42 1.41 1.41 1.39 1.34 1.33 1.30 1.20 1.30 1.35 1.37 1.43 1.52 1.50 1.52 1.55 1.55 1.54 1.56 1.57 1.59 1.62 1.63 1.61 1.60 1.54 1.47 1.41 1.41 1.30 1.26 1.26 1.23 1.28 1.26 1.31 1.26 1.20 1.18 1.24 1.22 1.18 1.19 1.17 1.16 1.11 1.10 1.10 1.13 1.17 1.19 1.17 1.19 1.20 1.29 1.23 1.20 1.23 1.25 1.25 1.21 1.21 1.27 1.29 1.31 1.37 1.39 1.39 1.50 1.54 1.47 1.38 1.34 1.36 1.40 1.49 1.56 1.56 1.52 1.48 1.44
1.46 1.45 1.44 1.43 1.42 1.46 1.43 1.27 1.31 1.27 1.27 1.36 1.45 1.46 1.49 1.52 1.54 1.57 1.58 1.58 1.55 1.55 1.56 1.56 1.59 1.63 1.63 1.57 1.56 1.47 1.43 1.38 1.35 1.33 1.33 1.39 1.40 1.31 1.32 1.29 1.24 1.20 1.20 1.21 1.19 1.14 1.15 1.14 1.16 1.12 1.02 1.01 1.04 1.06 1.12 1.11 1.13 1.14 1.26 1.24 1.25 1.22 1.17 1.19 1.20 1.22 1.28 1.29 1.35 1.35 1.37 1.43 1.51 1.53 1.52 1.44 1.37 1.35 1.34 1.37 1.48 1.56 1.58 1.54 1.51
1.53 1.48 1.45 1.48 1.50 1.49 1.36 1.27 1.32 1.35 1.44 1.50 1.53 1.52 1.57 1.59 1.60 1.60 1.60 1.59 1.60 1.59 1.61 1.63 1.64 1.56 1.61 1.57 1.50 1.44 1.41 1.34 1.36 1.40 1.33 1.37 1.39 1.36 1.35 1.27 1.30 1.23 1.19 1.18 1.17 1.19 1.15 1.13 1.11 1.11 1.06 1.00 1.02 1.04 1.07 1.10 1.09 1.10 1.15 1.16 1.16 1.17 1.15 1.16 1.17 1.21 1.28 1.27 1.28 1.30 1.34 1.36 1.43 1.48 1.55 1.52 1.45 1.43 1.41 1.40 1.49 1.56 1.56 1.56 1.55
1.54 1.57 1.53 1.43 1.37 1.36 1.34 1.37 1.43 1.48 1.51 1.53 1.55 1.54 1.60 1.59 1.61 1.61 1.56 1.56 1.61 1.65 1.65 1.67 1.63 1.69 1.62 1.58 1.54 1.41 1.46 1.39 1.38 1.42 1.34 1.36 1.39 1.37 1.33 1.35 1.34 1.28 1.25 1.25 1.24 1.23 1.15 1.09 1.02 1.04 1.04 1.02 0.99 1.00 1.01 1.07 1.11 1.13 1.15 1.15 1.13 1.15 1.17 1.17 1.20 1.23 1.22 1.24 1.29 1.31 1.35 1.44 1.46 1.44 1.50 1.56 1.53 1.49 1.46 1.45 1.48 1.54 1.58 1.58 1.59
1.42 1.36 1.39 1.34 1.35 1.38 1.43 1.44 1.48 1.52 1.56 1.57 1.58 1.61 1.63 1.61 1.62 1.58 1.50 1.53 1.62 1.61 1.64 1.54 1.55 1.55 1.55 1.56 1.50 1.50 1.47 1.44 1.51 1.40 1.33 1.36 1.37 1.39 1.43 1.31 1.32 1.28 1.25 1.21 1.17 1.10 1.05 1.03 0.98 0.98 1.08 1.09 1.05 1.06 1.08 1.11 1.12 1.09 1.10 1.11 1.13 1.14 1.18 1.19 1.20 1.22 1.25 1.27 1.31 1.36 1.40 1.38 1.40 1.44 1.45 1.50 1.58 1.57 1.50 1.51 1.51 1.56 1.61 1.58 1.54
1.44 1.45 1.42 1.44 1.46 1.48 1.49 1.45 1.51 1.57 1.62 1.64 1.66 1.59 1.59 1.53 1.51 1.52 1.47 1.49 1.53 1.54 1.53 1.44 1.45 1.61 1.55 1.59 1.46 1.46 1.43 1.43 1.41 1.42 1.41 1.37 1.31 1.34 1.27 1.28 1.37 1.28 1.15 1.10 1.05 1.01 0.98 0.97 1.00 1.04 1.05 1.10 1.13 1.13 1.15 1.15 1.12 1.09 1.06 1.10 1.14 1.16 1.17 1.19 1.21 1.24 1.30 1.32 1.33 1.35 1.35 1.40 1.41 1.42 1.48 1.51 1.49 1.53 1.56 1.54 1.51 1.48 1.51 1.57 1.59
1.45 1.43 1.43 1.46 1.51 1.48 1.46 1.47 1.56 1.61 1.59 1.56 1.59 1.54 1.49 1.48 1.51 1.50 1.47 1.52 1.50 1.56 1.55 1.57 1.57 1.65 1.62 1.56 1.51 1.49 1.50 1.44 1.45 1.33 1.31 1.32 1.31 1.27 1.24 1.20 1.20 1.14 1.09 1.01 1.00 1.01 1.04 1.07 1.08 1.08 1.06 1.06 1.07 1.12 1.14 1.12 1.03 1.01 1.05 1.02 1.01 1.11 1.15 1.18 1.21 1.25 1.28 1.29 1.28 1.25 1.28 1.29 1.33 1.36 1.43 1.49 1.54 1.55 1.55 1.49 1.47 1.49 1.47 1.47 1.56
1.40 1.41 1.38 1.42 1.45 1.48 1.49 1.51 1.55 1.55 1.50 1.53 1.57 1.53 1.52 1.51 1.52 1.53 1.52 1.53 1.52 1.51 1.50 1.53 1.53 1.67 1.58 1.50 1.42 1.38 1.33 1.28 1.25 1.26 1.23 1.22 1.20 1.19 1.16 1.11 1.09 1.05 1.01 1.01 1.00 1.02 1.04 1.04 1.04 1.03 1.13 1.04 1.02 1.10 1.13 1.09 0.97 0.89 0.83 0.82 0.91 1.04 1.08 1.13 1.18 1.22 1.22 1.22 1.23 1.23 1.23 1.23 1.24 1.26 1.32 1.37 1.41 1.51 1.58 1.50 1.56 1.53 1.50 1.53 1.55
1.41 1.38 1.43 1.44 1.45 1.46 1.49 1.49 1.51 1.49 1.53 1.57 1.51 1.46 1.53 1.59 1.57 1.54 1.54 1.49 1.53 1.53 1.54 1.53 1.55 1.58 1.46 1.36 1.31 1.24 1.22 1.19 1.19 1.18 1.17 1.16 1.14 1.11 1.06 1.05 1.01 0.97 0.93 0.93 0.96 0.98 1.00 0.98 0.99 0.93 0.91 0.99 1.00 1.09 1.06 1.07 0.91 1.00 0.99 0.85 0.77 0.73 0.91 1.07 1.13 1.09 1.11 1.14 1.19 1.17 1.19 1.21 1.21 1.25 1.28 1.30 1.33 1.37 1.41 1.44 1.46 1.48 1.51 1.54 1.59
1.43 1.42 1.44 1.43 1.45 1.45 1.46 1.44 1.46 1.54 1.58 1.59 1.59 1.57 1.56 1.57 1.57 1.52 1.52 1.50 1.43 1.52 1.52 1.41 1.46 1.47 1.29 1.23 1.21 1.19 1.17 1.14 1.15 1.12 1.13 1.13 1.10 1.05 1.03 0.99 0.95 0.93 0.90 0.87 0.90 0.92 0.95 0.94 0.95 0.94 0.91 0.79 0.85 0.92 1.04 1.05 1.02 0.95 0.75 0.79 0.83 0.81 0.68 0.81 0.85 0.97 1.10 1.12 1.14 1.11 1.14 1.16 1.20 1.25 1.28 1.24 1.28 1.33 1.37 1.39 1.40 1.42 1.47 1.54 1.58
1.35 1.37 1.40 1.41 1.43 1.44 1.44 1.45 1.46 1.50 1.54 1.57 1.60 1.60 1.56 1.47 1.45 1.47 1.49 1.44 1.45 1.38 1.31 1.33 1.34 1.27 1.20 1.15 1.12 1.15 1.13 1.11 1.10 1.09 1.08 1.06 1.06 1.04 1.00 0.96 0.93 0.92 0.91 0.89 0.87 0.88 0.90 0.90 0.92 0.89 0.87 0.81 0.76 0.82 0.94 1.02 1.01 1.05 0.97 0.84 0.77 0.67 0.67 0.76 0.81 0.84 1.06 1.02 1.09 1.12 1.13 1.15 1.15 1.18 1.21 1.22 1.28 1.33 1.38 1.39 1.40 1.42 1.42 1.44 1.46
1.30 1.37 1.43 1.43 1.45 1.46 1.50 1.53 1.53 1.56 1.53 1.52 1.56 1.59 1.52 1.46 1.41 1.36 1.27 1.29 1.21 1.24 1.16 1.18 1.15 1.14 1.11 1.15 1.11 1.11 1.11 1.07 1.06 1.04 1.03 1.02 0.98 0.95 0.92 0.89 0.90 0.90 0.86 0.86 0.88 0.85 0.84 0.83 0.85 0.83 0.82 0.89 0.81 0.78 0.78 0.95 0.98 1.01 1.05 1.01 0.95 0.81 0.74 0.79 0.81 0.64 0.88 1.03 1.04 1.08 1.08 1.12 1.13 1.11 1.13 1.15 1.19 1.26 1.35 1.35 1.36 1.34 1.37 1.37 1.39
1.34 1.39 1.41 1.44 1.48 1.49 1.51 1.51 1.48 1.49 1.53 1.48 1.47 1.50 1.41 1.41 1.40 1.32 1.37 1.28 1.21 1.24 1.36 1.28 1.18 1.16 1.17 1.12 1.10 1.08 1.07 1.04 1.01 1.00 0.96 0.94 0.93 0.90 0.89 0.87 0.86 0.86 0.83 0.81 0.80 0.79 0.79 0.81 0.83 0.83 0.83 0.84 0.83 0.74 0.75 0.77 0.86 0.96 0.99 1.01 1.01 1.02 1.02 0.88 0.74 0.83 0.71 0.81 0.95 0.99 1.01 1.07 1.08 1.07 1.05 1.07 1.12 1.15 1.21 1.29 1.31 1.31 1.31 1.35 1.36
1.38 1.41 1.40 1.43 1.43 1.44 1.46 1.46 1.46 1.44 1.44 1.44 1.46 1.46 1.36 1.33 1.34 1.35 1.38 1.27 1.28 1.30 1.26 1.22 1.19 1.15 1.11 1.08 1.05 1.03 1.02 1.00 0.96 0.92 0.91 0.89 0.88 0.86 0.85 0.83 0.83 0.81 0.80 0.77 0.77 0.78 0.78 0.79 0.80 0.81 0.82 0.81 0.80 0.75 0.72 0.77 0.70 0.72 0.87 0.87 0.89 0.97 1.00 1.00 1.01 0.86 0.80 0.72 0.70 0.89 1.00 1.05 1.04 1.02 1.03 1.05 1.07 1.08 1.10 1.17 1.21 1.24 1.28 1.33 1.37
1.38 1.36 1.38 1.40 1.40 1.41 1.41 1.42 1.41 1.40 1.43 1.43 1.41 1.36 1.37 1.34 1.31 1.26 1.21 1.38 1.34 1.25 1.23 1.19 1.13 1.12 1.06 1.05 1.02 1.02 0.98 0.95 0.90 0.87 0.87 0.87 0.85 0.82 0.82 0.81 0.79 0.79 0.78 0.77 0.77 0.77 0.75 0.72 0.72 0.74 0.75 0.76 0.76 0.77 0.75 0.73 0.74 0.73 0.73 0.74 0.79 0.81 0.82 0.86 0.91 0.94 0.81 0.71 0.68 0.72 0.76 0.92 0.97 0.99 1.03 1.07 1.09 1.10 1.10 1.11 1.14 1.17 1.22 1.24 1.28
1.38 1.39 1.39 1.37 1.34 1.36 1.35 1.35 1.34 1.39 1.41 1.41 1.38 1.33 1.33 1.34 1.27 1.20 1.25 1.27 1.24 1.20 1.17 1.12 1.09 1.08 1.02 1.00 0.99 0.95 0.93 0.89 0.86 0.84 0.84 0.85 0.82 0.81 0.80 0.79 0.77 0.76 0.74 0.73 0.71 0.71 0.73 0.71 0.73 0.74 0.77 0.73 0.76 0.75 0.73 0.73 0.74 0.75 0.76 0.74 0.71 0.70 0.69 0.68 0.74 0.76 0.76 0.80 0.70 0.69 0.76 0.76 0.72 0.84 0.97 1.03 1.09 1.11 1.13 1.13 1.12 1.14 1.16 1.18 1.21
1.36 1.36 1.34 1.33 1.34 1.34 1.32 1.32 1.33 1.36 1.38 1.34 1.33 1.32 1.30 1.30 1.26 1.24 1.25 1.21 1.19 1.16 1.11 1.05 1.05 1.02 0.98 0.97 0.93 0.89 0.85 0.82 0.83 0.82 0.82 0.83 0.81 0.79 0.77 0.76 0.75 0.75 0.74 0.73 0.72 0.73 0.73 0.73 0.76 0.78 0.76 0.74 0.72 0.72 0.72 0.74 0.73 0.73 0.73 0.74 0.71 0.70 0.67 0.63 0.64 0.66 0.67 0.65 0.63 0.63 0.69 0.76 0.77 0.74 0.85 0.98 1.04 1.12 1.12 1.12 1.11 1.12 1.15 1.18 1.22
Wind_Speed
4 4 4 4 3 1 1 1 1 2 2 3 3 3 3 3 4 4 4 5 6 6 7 7 8 9 9 10 10 11 11 11 12 12 12 12 12 11 12 12 11 11 11 11 10 10 10 10 9 9 9 9 8 8 8 7 7 7 6 6 6 6 6 6 6 6 6 6 7 7 7 6 6 6 6 6 6 6 6 6 6 7 7 7 7
5 4 5 4 3 2 2 1 1 1 2 2 3 3 3 3 3 3 3 4 5 6 6 7 8 8 9 9 9 10 10 11 11 11 12 12 12 11 11 11 11 11 11 11 11 10 10 10 9 9 9 8 8 8 8 8 7 7 6 6 5 5 5 5 6 6 7 7 8 8 8 7 6 6 6 6 6 6 6 6 6 6 7 7 7
5 5 5 5 4 3 2 2 1 1 1 2 2 2 2 2 2 2 3 3 4 5 5 6 7 7 8 8 9 9 10 10 10 11 11 11 11 11 11 11 11 11 11 11 11 10 10 10 9 9 9 8 8 8 8 8 7 7 7 6 5 5 5 5 6 6 7 7 7 8 8 7 7 6 6 6 6 6 6 6 6 6 6 7 7
6 6 6 5 4 4 3 2 1 1 1 1 1 1 1 1 2 2 2 3 3 4 4 5 6 7 7 7 8 8 9 9 10 10 11 11 11 11 11 11 11 11 11 11 11 10 10 9 9 9 8 8 8 8 8 8 8 7 7 7 6 5 5 6 6 6 6 6 6 7 8 7 6 6 6 6 5 6 6 6 6 6 6 6 6
6 7 6 6 5 4 4 3 2 1 1 0 1 1 1 1 1 1 2 2 3 3 4 5 5 6 6 7 7 8 8 9 9 10 10 10 10 10 10 10 10 10 10 10 10 10 10 9 9 9 8 8 8 8 8 8 8 8 8 7 7 6 6 6 6 5 5 5 5 5 7 7 6 6 6 5 5 5 5 5 6 6 6 6 6
7 8 7 6 6 5 4 3 2 2 1 1 0 0 0 0 0 1 1 1 2 2 3 4 4 5 5 6 7 7 8 8 9 9 9 10 10 10 10 10 10 10 10 10 10 10 10 9 9 8 8 8 8 8 8 8 8 8 8 8 8 7 7 6 6 5 4 4 4 4 6 7 7 6 6 6 6 6 5 5 5 5 5 5 6
7 8 8 7 6 6 5 4 3 2 2 2 1 1 1 1 1 1 1 1 1 2 2 3 3 4 5 5 6 6 7 7 8 8 8 9 9 9 9 9 9 9 9 9 9 9 9 9 9 8 8 8 8 8 8 9 9 8 8 8 8 8 7 7 6 5 5 4 4 4 5 7 7 6 6 6 6 6 6 5 5 5 5 5 5
8 8 8 8 7 7 6 5 4 3 3 2 2 2 2 2 1 1 1 1 1 1 2 2 3 3 4 5 5 6 6 7 7 7 8 8 8 9 9 9 9 9 9 8 8 8 8 9 9 8 8 8 8 8 8 8 9 8 8 8 8 7 7 6 6 6 6 5 5 5 5 6 6 6 6 6 6 5 5 6 5 5 5 5 5
8 8 8 8 8 8 7 6 4 4 3 3 3 3 3 2 2 1 1 1 0 1 1 1 2 3 3 4 4 5 5 6 6 7 7 7 7 8 8 8 8 8 8 8 8 8 8 8 8 8 8 8 8 8 8 8 8 8 7 7 7 7 7 6 6 7 6 6 6 6 6 6 6 6 6 6 6 5 5 5 5 5 5 4 5
7 8 9 9 9 9 8 6 5 4 4 4 4 4 3 3 2 2 1 1 1 1 1 1 1 2 3 3 4 4 5 5 6 6 6 6 7 7 7 7 7 7 7 7 7 7 7 8 8 8 8 8 8 8 8 8 8 7 7 7 7 7 7 6 6 7 7 6 6 6 6 6 6 6 6 6 6 6 5 5 5 5 5 5 5
7 8 9 9 9 9 8 7 6 5 5 5 5 5 4 4 3 2 2 2 1 1 1 1 1 2 2 3 3 4 4 5 5 5 6 6 6 7 7 7 6 6 6 6 6 6 7 7 7 8 8 8 8 8 8 8 7 7 7 7 8 7 7 6 6 6 6 6 6 5 6 6 6 6 6 5 5 5 5 5 5 5 4 5 5
8 9 10 10 10 10 9 8 7 6 6 6 6 6 5 5 4 3 2 2 2 2 1 1 1 2 2 3 3 4 4 5 5 5 6 6 6 6 6 6 6 5 5 6 5 5 6 6 6 7 7 7 8 8 8 8 7 7 7 7 7 7 7 6 6 6 5 6 5 5 6 5 5 5 5 5 5 5 5 5 4 4 4 4 5
8 10 10 10 10 10 9 8 7 7 7 7 7 6 6 5 4 4 3 3 2 2 2 1 1 2 2 3 3 4 4 5 5 5 5 6 6 6 6 5 5 4 4 5 5 4 5 5 5 6 6 7 7 7 8 7 7 6 6 7 7 7 7 7 6 6 5 5 4 5 5 4 4 4 4 5 5 5 5 4 4 4 4 4 5
9 11 11 11 11 11 10 9 8 8 8 8 8 7 7 6 5 4 4 3 3 3 2 2 2 2 2 3 3 4 4 5 5 5 5 5 5 6 6 5 5 4 3 4 4 4 4 4 4 5 5 6 6 7 7 7 6 6 6 6 6 6 6 7 6 5 4 4 4 4 5 4 4 4 4 4 4 4 4 4 4 4 4 5 5
11 11 12 12 12 12 11 10 9 9 9 9 8 8 7 6 6 5 4 4 3 3 3 2 2 2 3 3 4 4 4 4 5 5 5 5 5 5 5 5 5 4 3 3 3 3 3 3 4 4 4 5 5 6 6 6 6 6 6 6 6 6 7 6 6 5 4 4 3 4 4 4 4 4 4 4 4 4 5 4 4 5 5 5 5
12 12 13 13 13 13 12 11 10 10 10 9 9 8 8 7 6 5 5 5 4 4 3 3 3 3 3 3 4 4 4 4 4 5 5 5 5 5 5 5 5 3 3 3 2 2 2 3 3 3 3 4 4 4 5 5 5 5 6 6 6 6 7 7 6 5 4 4 4 4 4 4 5 5 5 5 5 5 5 5 5 5 5 5 6
13 13 14 14 14 14 13 12 11 10 10 10 9 9 8 7 7 6 6 5 5 4 4 4 3 3 3 4 4 4 4 4 4 4 4 5 5 5 5 5 4 4 3 3 2 2 2 2 3 3 3 3 3 4 4 5 5 5 6 6 6 6 7 7 7 6 5 4 4 4 5 5 6 6 6 6 6 6 6 6 6 6 6 6 7
14 14 15 15 15 14 14 13 12 11 11 10 9 9 8 8 7 7 6 6 5 5 5 4 4 4 4 4 4 4 4 4 4 4 4 4 5 5 5 5 5 4 3 3 2 2 2 2 3 3 3 3 3 3 4 5 5 5 6 6 7 7 7 7 7 7 6 5 4 5 6 6 6 7 6 7 7 7 7 7 7 7 7 7 7
14 14 15 16 15 15 14 13 13 12 11 11 10 10 9 8 8 7 7 6 6 5 5 5 4 4 4 3 3 4 4 4 4 4 4 4 5 5 5 5 5 4 4 3 3 3 3 3 4 4 4 3 4 4 4 5 5 6 6 7 7 8 8 8 8 7 6 6 6 6 7 7 7 7 7 7 7 7 7 7 8 8 8 8 8
14 15 16 16 15 15 15 14 13 13 12 11 11 10 10 9 8 8 7 7 7 6 6 5 5 4 4 3 3 4 4 4 4 4 5 5 5 5 5 5 5 5 4 4 3 4 4 4 5 5 5 5 5 5 6 6 6 7 7 8 8 9 9 9 9 8 7 7 8 8 7 8 8 8 8 8 8 8 8 8 8 9 9 8 8
15 16 16 16 16 15 15 15 14 13 12 12 11 11 10 10 9 8 8 8 7 7 7 6 6 5 4 4 4 4 4 4 5 5 5 5 5 5 5 5 5 5 5 4 4 4 5 5 5 6 6 6 7 7 7 7 7 8 8 9 9 10 10 10 10 10 9 9 9 8 8 9 9 9 9 9 10 10 9 9 9 9 9 9 9
16 16 16 16 16 15 15 14 14 13 12 12 12 11 11 10 10 9 9 8 8 7 7 7 6 5 5 5 5 5 5 5 5 5 5 5 5 5 5 5 5 5 5 5 5 5 6 6 6 6 7 7 7 8 8 8 8 9 9 10 10 10 11 11 10 11 10 10 9 9 10 11 11 11 10 10 11 10 11 11 10 10 9 9 9
16 16 16 16 16 15 15 14 14 13 12 12 11 11 11 11 10 9 9 9 8 8 8 7 6 6 6 6 6 6 6 5 6 6 5 5 5 6 5 5 5 5 6 6 6 6 6 6 7 7 7 8 8 8 8 8 9 9 10 10 11 11 11 11 11 11 11 11 11 11 11 11 12 12 12 12 12 11 12 11 11 11 10 10 10
15 16 16 16 15 15 15 14 14 14 12 12 11 12 11 11 11 10 9 9 9 9 8 8 7 7 7 7 6 6 6 6 6 6 6 6 6 6 6 6 6 6 6 6 7 7 7 7 7 8 8 8 9 9 9 9 9 9 10 11 11 12 12 12 11 12 12 11 12 12 12 12 12 13 13 13 13 13 13 12 12 12 11 10 10
15 15 16 15 15 15 14 14 14 13 12 12 12 12 11 11 11 10 10 10 9 9 9 8 8 8 7 7 7 6 6 6 6 6 6 6 6 6 6 6 6 6 6 7 7 7 7 7 7 8 8 9 9 9 9 9 10 10 11 12 12 12 12 12 12 13 13 12 12 12 13 13 13 13 14 14 14 14 14 13 13 13 12 11 11
16 15 15 15 15 14 14 14 13 13 12 12 11 11 11 10 11 11 11 10 10 10 9 9 8 8 7 7 7 6 6 7 6 6 7 7 7 7 7 6 7 6 7 7 7 8 8 8 8 8 9 9 9 9 9 10 10 11 12 12 12 12 12 12 13 13 13 13 13 13 14 14 14 14 14 15 15 15 14 14 14 13 13 12 11
16 16 15 15 15 14 14 14 13 13 12 11 11 11 11 11 10 11 11 10 10 10 9 9 8 8 8 7 6 6 7 7 7 7 6 7 7 7 6 6 7 7 7 7 7 8 8 8 8 8 9 9 10 10 10 11 11 11 12 12 12 12 13 13 13 14 13 13 13 14 14 15 15 15 16 16 16 16 15 15 15 14 14 13 12
16 16 15 14 14 14 14 14 13 13 12 11 11 11 11 11 11 11 11 11 10 10 9 9 9 9 8 7 7 7 7 7 7 6 6 6 6 6 6 6 6 7 7 7 7 7 8 8 8 8 9 9 10 10 11 12 12 12 13 13 12 13 13 14 14 14 14 14 14 15 15 16 16 17 17 17 17 17 16 16 15 15 14 14 13
17 16 15 15 14 14 15 14 13 13 12 11 11 11 11 11 11 11 11 11 11 10 10 9 9 9 8 7 7 7 7 7 7 7 6 6 6 6 6 6 6 6 7 7 7 7 8 8 9 9 9 10 10 11 12 12 12 13 13 13 13 13 14 14 15 15 15 14 15 16 16 17 17 17 18 18 18 18 18 17 16 16 15 14 14
17 16 15 15 14 14 14 14 13 13 13 12 11 11 11 11 11 11 11 11 11 10 10 10 9 8 8 8 8 7 7 7 7 7 6 6 6 6 6 6 6 6 7 8 8 8 8 9 9 10 10 11 11 12 12 12 13 13 14 14 14 14 14 14 15 15 16 15 15 16 17 17 17 18 18 18 18 19 19 18 17 16 16 15 14
17 16 15 15 14 14 14 14 13 13 12 12 12 12 11 11 11 11 11 11 11 11 10 10 9 8 8 8 7 7 7 7 7 7 6 6 6 6 6 6 6 7 7 8 8 9 9 9 10 11 11 12 12 13 13 13 13 13 14 14 15 15 15 15 15 15 16 16 15 16 17 17 18 18 18 19 19 19 19 18 18 17 16 16 15
17 16 15 15 15 14 14 14 14 13 12 12 12 12 12 12 12 12 12 11 11 11 10 10 9 8 8 8 7 7 6 6 6 5 5 5 5 5 6 6 6 7 7 8 8 9 10 10 11 11 12 13 13 13 14 14 14 14 15 15 16 16 15 15 16 16 16 16 16 16 17 18 18 18 18 19 19 19 18 18 18 18 17 17 16
17 16 15 15 15 14 14 14 14 13 13 12 12 12 12 12 12 12 12 11 11 11 10 10 9 9 8 8 7 6 6 5 5 5 5 5 5 5 6 6 6 7 8 8 9 9 10 11 11 12 12 13 13 14 14 14 15 15 15 16 16 16 17 16 16 17 17 17 17 18 18 18 19 19 19 19 19 18 18 18 18 18 18 18 17
17 16 15 15 14 14 14 14 14 13 13 12 12 12 12 12 12 11 11 11 11 11 10 10 9 9 8 8 7 6 5 5 5 5 5 4 5 5 5 6 6 7 8 9 9 10 10 11 11 12 13 13 14 14 15 15 15 15 16 16 16 17 17 17 17 17 17 18 19 19 19 19 19 19 19 19 19 18 18 18 18 18 18 18 18
16 15 15 15 14 14 14 15 14 13 13 13 12 12 12 12 12 11 11 11 11 11 10 10 10 9 8 8 7 6 5 5 5 5 4 4 5 5 5 6 7 8 8 9 10 10 10 11 12 13 13 14 14 15 15 15 16 16 16 16 17 17 18 18 18 18 18 18 19 19 19 19 19 19 19 19 19 19 18 19 19 19 19 18 18
16 15 15 15 14 14 15 15 14 14 14 13 13 12 12 12 12 12 11 11 11 11 11 10 10 9 8 8 7 6 5 5 5 5 4 5 5 5 6 6 7 8 9 9 10 10 11 12 12 13 14 14 15 15 16 16 16 16 17 17 17 18 18 18 19 19 19 19 19 20 20 20 20 19 19 19 19 19 19 19 19 20 20 19 19
14 14 14 14 14 13 14 13 13 13 14 13 13 12 12 12 12 12 11 11 11 11 10 10 10 10 9 8 7 6 5 5 5 5 5 5 5 6 6 7 8 8 9 10 10 11 11 12 13 14 14 15 15 16 16 16 16 17 17 18 18 18 19 19 19 19 20 20 20 20 20 19 19 20 19 19 19 19 19 18 19 20 20 20 20
11 11 12 12 12 12 13 13 13 13 13 13 13 13 13 13 12 12 11 11 11 11 11 10 10 10 9 8 7 6 5 5 5 5 5 6 6 6 7 8 8 9 10 10 11 11 12 13 14 14 15 15 16 16 16 16 17 17 18 18 18 19 19 19 19 19 19 20 20 20 20 20 20 20 20 20 20 19 19 19 19 20 21 21 21
11 11 11 12 12 13 13 13 13 13 13 13 14 13 13 13 12 12 12 12 11 11 10 10 9 10 9 8 6 5 4 4 5 5 6 6 7 7 8 9 9 10 10 11 11 12 13 14 14 15 15 15 16 16 16 16 17 17 18 18 19 18 18 19 19 19 19 19 20 19 19 20 20 20 19 19 19 19 19 19 19 19 20 21 22
13 13 12 12 13 13 14 13 13 13 13 13 13 13 13 13 12 12 12 12 11 10 9 9 9 9 9 7 5 4 4 4 5 5 6 7 7 8 8 9 10 10 11 11 12 13 14 14 14 15 15 15 15 16 16 16 17 17 17 18 18 18 18 18 18 18 18 19 19 19 19 19 19 19 19 19 19 19 19 19 19 19 20 21 22
13 13 13 13 13 14 13 13 13 13 13 13 13 14 13 13 12 12 12 11 10 10 10 9 9 8 7 5 4 3 4 4 5 6 6 7 8 8 9 9 10 11 11 12 13 13 14 14 14 14 15 15 15 16 16 16 17 17 17 18 18 18 18 18 17 17 18 18 19 19 19 19 20 20 20 20 20 19 19 19 20 20 20 20 21
13 14 13 14 14 13 13 13 13 13 13 13 14 14 13 13 12 12 11 10 10 10 9 9 9 8 6 4 3 4 4 5 5 6 7 7 8 8 9 10 10 11 11 12 13 13 13 14 14 14 15 15 15 15 16 16 16 17 18 18 18 17 17 16 16 17 18 19 19 19 19 19 19 20 20 20 19 19 19 20 20 20 20 20 21
13 14 14 14 14 13 13 13 13 13 13 14 13 12 12 12 12 12 11 10 10 9 9 8 8 7 5 4 4 4 5 6 6 7 7 8 8 9 9 10 11 11 12 12 12 13 13 14 14 15 15 15 15 16 16 16 17 18 18 17 17 17 17 15 16 18 18 18 18 18 19 19 19 20 20 20 20 19 19 20 20 20 20 21 20
13 14 14 14 14 14 14 13 13 13 13 13 12 12 12 12 12 11 10 10 9 8 8 7 7 6 5 5 5 5 6 7 7 8 8 8 9 9 10 11 11 12 12 12 12 13 13 14 14 15 16 16 16 16 16 16 17 17 17 17 17 17 16 16 18 20 18 17 18 18 18 18 19 19 19 20 20 20 20 20 20 20 20 21 21
14 14 14 14 14 14 14 14 13 13 13 13 12 12 12 12 12 11 10 10 9 8 8 7 6 5 5 5 6 6 6 7 8 8 8 9 9 10 10 11 11 11 12 12 12 13 13 14 15 15 16 16 17 17 17 17 17 17 17 17 17 16 17 18 20 19 18 18 19 19 18 19 19 19 19 19 20 20 20 20 20 21 21 21 21
14 14 14 13 13 13 13 13 12 13 13 13 12 12 12 12 12 11 10 9 9 9 8 7 6 5 5 6 6 6 7 7 7 8 8 9 9 10 10 10 11 11 11 12 12 13 14 14 15 16 16 17 17 18 18 18 18 17 17 18 17 18 19 20 19 19 19 20 19 19 19 19 19 19 19 20 20 20 20 20 20 20 21 21 21
14 13 13 13 13 13 13 12 12 12 13 12 12 12 12 12 11 11 10 10 9 9 7 6 5 5 6 6 7 7 7 7 7 8 8 9 9 10 10 11 11 11 12 12 13 14 15 15 16 17 17 17 18 18 18 18 18 18 18 18 19 19 20 20 20 20 20 20 20 20 20 20 20 20 20 20 20 20 20 20 20 20 21 21 21
14 13 13 13 13 12 12 12 12 12 12 12 12 12 12 12 11 10 10 9 9 8 6 6 6 6 6 7 7 7 7 7 8 8 8 9 10 10 11 11 11 12 13 13 14 15 16 16 17 17 18 18 18 18 19 19 19 19 20 20 20 20 20 21 21 21 20 21 21 21 21 21 21 21 21 21 21 21 21 21 21 21 20 20 21
13 13 13 12 11 11 11 12 12 12 12 12 13 13 12 11 11 10 9 8 7 6 6 6 6 6 6 7 7 7 7 7 8 8 9 9 10 10 11 11 12 13 14 14 15 16 17 17 18 18 18 19 19 19 19 20 20 20 21 21 21 21 22 22 22 22 22 22 22 22 22 23 22 22 22 22 22 21 21 21 21 21 20 20 20
13 13 12 11 10 9 10 10 12 12 12 12 13 13 12 11 11 10 8 7 7 6 6 6 6 6 7 7 7 7 7 8 8 8 9 10 10 11 11 12 12 13 14 14 15 16 17 18 18 19 19 20 20 20 20 21 21 21 21 22 22 22 23 23 23 24 24 24 24 24 25 24 24 23 23 22 22 22 22 22 22 22 21 22 21
13 12 12 10 9 8 8 9 10 12 13 13 13 12 12 11 10 8 7 7 6 6 6 6 6 7 7 7 7 7 8 8 8 9 9 10 10 11 12 12 13 13 14 15 16 17 17 18 18 19 20 20 21 21 21 21 22 22 22 22 22 23 23 24 24 25 25 25 26 26 26 26 26 25 24 24 24 23 23 23 23 23 23 22 22
Wind_Direction
205 202 191 186 185 177 162 138 106 74 58 52 47 51 58 63 61 56 50 48 48 49 51 50 48 45 43 41 41 40 39 39 39 39 40 42 46 48 50 51 52 52 53 53 52 53 55 55 55 55 56 55 56 54 52 51 50 50 50 50 52 53 56 56 53 51 53 55 58 59 58 60 64 65 64 62 60 60 61 60 59 57 56 56 57
209 200 195 189 189 193 175 162 131 93 62 52 46 49 59 66 64 58 53 51 52 53 53 51 46 43 41 39 39 39 39 39 39 39 40 42 46 49 50 52 53 53 53 52 52 52 52 52 52 54 56 56 55 51 48 47 47 45 43 44 46 50 52 51 51 54 60 61 60 60 60 62 66 66 64 63 62 60 60 59 57 55 54 54 53
211 203 201 195 195 200 188 179 158 120 71 52 45 48 60 67 66 61 56 55 55 56 55 48 43 40 39 38 38 37 38 38 40 40 40 42 45 48 50 52 52 52 51 50 50 50 50 49 50 53 54 55 52 47 44 43 43 42 40 41 44 49 50 52 56 60 63 63 60 59 58 60 63 64 63 62 62 61 58 54 54 54 52 52 52
217 207 205 199 199 203 197 190 180 166 106 47 44 42 58 71 69 68 61 60 59 58 54 45 40 38 37 37 36 36 36 37 38 40 40 41 44 47 49 50 49 50 50 49 49 48 48 48 48 49 50 51 48 44 42 41 40 40 41 43 47 53 56 59 59 60 63 65 65 57 51 55 60 61 62 61 59 57 55 53 53 53 50 51 52
221 211 208 203 203 203 201 197 193 194 190 34 33 20 64 84 81 79 67 64 63 58 49 40 38 37 36 35 34 34 34 35 37 38 39 40 42 44 47 48 47 47 48 48 48 47 47 47 47 47 47 46 44 43 42 41 41 42 45 48 55 61 64 61 57 58 61 67 71 53 43 51 59 60 60 58 56 54 52 53 53 51 51 52 51
221 211 210 208 206 205 204 202 204 205 210 234 266 271 179 135 120 99 83 77 68 53 41 37 37 35 35 34 32 32 32 33 35 37 37 39 40 42 44 46 44 44 45 45 46 46 46 47 47 46 45 43 42 43 43 44 44 45 49 55 61 67 67 61 56 53 54 64 67 55 46 51 57 60 61 59 56 53 51 52 52 51 51 53 52
219 211 214 212 208 208 207 206 209 211 217 232 244 245 227 213 190 162 129 104 72 43 34 36 34 33 32 31 30 29 29 31 33 35 36 37 39 40 42 42 42 42 41 42 41 42 45 47 47 45 44 43 43 43 44 46 47 50 54 60 65 67 65 60 55 49 46 49 57 66 56 51 57 61 61 59 56 52 50 50 51 51 51 53 51
219 215 216 213 211 208 207 208 213 217 221 230 238 237 226 218 209 200 175 142 67 31 29 32 30 30 28 27 26 25 26 28 30 31 33 34 35 36 37 38 37 38 39 39 39 41 44 47 46 44 43 43 43 44 45 48 49 53 57 62 65 64 60 56 49 43 39 40 55 71 61 54 59 60 58 57 53 51 50 48 47 47 48 50 46
220 218 215 214 211 206 208 210 216 223 224 230 235 231 223 216 212 210 200 201 354 6 16 22 23 24 22 22 21 21 23 24 27 27 28 28 29 29 30 31 32 35 38 40 41 43 45 47 47 45 44 43 44 45 47 48 49 54 60 62 62 57 52 48 44 40 39 48 64 68 62 60 61 59 57 54 50 49 49 45 42 42 43 43 40
220 220 215 214 208 205 209 212 221 226 226 230 233 229 222 218 214 216 218 226 246 290 330 356 6 10 12 16 15 16 16 16 19 20 20 18 19 19 20 24 28 34 38 40 42 44 46 47 48 45 44 44 45 47 48 49 51 58 62 61 57 51 46 40 38 37 39 54 65 60 57 59 58 57 55 51 47 45 43 40 38 39 38 37 35
221 223 217 213 207 207 211 215 224 228 229 229 231 228 222 219 217 219 225 231 240 258 277 311 336 348 359 3 4 5 5 5 7 8 8 7 7 9 13 18 24 32 36 39 41 43 47 47 47 45 44 44 46 47 50 51 55 61 62 58 52 46 41 34 31 31 41 57 58 53 54 55 55 53 50 46 43 40 37 35 36 37 35 32 29
224 227 219 213 209 211 214 219 226 230 229 228 230 227 222 220 218 222 226 231 238 248 257 276 308 324 339 344 348 351 351 353 355 357 357 357 359 2 8 13 18 25 31 35 38 42 45 46 45 43 43 45 46 47 49 52 58 63 60 54 49 43 35 30 27 26 44 60 53 49 47 47 47 43 42 39 37 34 30 29 29 28 26 23 19
223 228 219 214 214 215 218 224 229 231 226 227 230 227 224 219 219 222 224 231 238 244 249 262 287 306 321 330 334 339 343 345 347 350 351 353 355 358 4 9 13 17 23 30 35 40 42 43 42 41 43 45 46 46 47 49 54 58 53 49 45 41 33 24 22 26 46 53 44 41 35 33 36 32 30 26 24 23 19 17 16 14 12 8 3
224 228 220 218 219 220 224 227 230 230 225 227 229 228 224 218 220 221 225 231 236 240 243 255 272 292 306 318 325 332 336 339 342 345 348 352 354 356 360 5 9 12 14 21 30 37 38 37 36 38 40 42 43 44 44 44 46 47 42 40 36 33 28 20 16 23 39 38 34 34 26 22 22 18 13 9 9 6 4 2 359 357 355 352 348
230 228 222 222 223 224 228 229 230 229 225 226 227 227 223 220 221 221 226 229 234 237 240 250 261 280 295 308 318 326 329 332 337 341 344 349 352 354 357 2 6 10 7 10 23 31 31 28 28 31 33 35 37 37 38 36 35 32 26 24 22 21 19 17 13 11 20 21 12 10 9 7 2 356 351 348 348 347 346 343 340 339 339 339 337
231 228 224 225 224 225 228 229 230 227 224 225 227 224 221 221 222 223 224 228 233 233 237 246 257 272 287 302 312 318 322 325 330 335 339 342 348 352 355 360 5 10 6 2 12 18 17 17 16 18 20 22 25 27 26 24 20 15 11 9 10 10 9 10 4 356 359 3 350 346 354 354 347 341 335 332 331 331 331 329 326 325 325 326 326
232 229 225 225 225 225 227 227 227 225 222 224 224 222 222 221 220 224 224 227 231 230 235 243 254 270 281 295 305 309 314 319 325 329 333 337 341 347 351 355 0 4 3 356 354 351 349 353 357 359 0 360 3 8 8 8 5 1 360 358 358 359 358 359 356 349 347 349 340 334 341 341 337 332 328 324 322 322 321 320 318 316 314 314 315
234 230 225 224 225 225 225 224 223 223 221 222 222 221 222 220 220 224 225 227 228 229 234 242 254 266 277 290 299 303 307 312 318 321 326 331 334 340 344 348 351 350 348 345 338 328 322 327 332 333 334 334 334 339 344 346 348 346 345 346 346 346 346 347 346 341 338 340 329 322 325 326 326 323 321 319 317 317 316 315 314 311 310 308 308
233 227 223 223 223 223 223 221 221 220 220 221 221 221 221 220 221 224 225 226 227 230 234 241 252 261 273 287 297 303 307 311 313 315 318 321 326 331 335 339 342 341 337 334 327 319 315 313 314 314 312 311 312 314 320 325 328 329 330 331 331 333 335 336 334 329 328 329 319 314 315 317 317 315 314 314 313 313 312 313 312 310 308 306 304
229 224 221 222 222 220 220 219 218 217 218 219 219 220 220 220 222 224 224 224 226 229 234 240 250 259 266 280 294 301 307 309 310 312 312 314 320 323 327 329 331 333 331 324 318 315 312 310 310 313 309 302 302 302 305 310 312 314 317 319 319 321 322 323 324 321 320 318 314 310 310 313 311 308 308 309 308 308 307 308 309 308 307 305 303
223 221 220 218 220 220 219 218 217 215 217 218 220 221 219 221 223 222 223 223 226 230 236 242 249 256 261 274 287 292 298 301 301 306 308 312 316 316 318 322 323 324 325 320 315 312 311 311 312 315 313 306 302 301 302 304 305 307 308 311 312 314 313 313 315 314 312 310 308 306 306 310 308 304 303 303 304 303 303 303 304 305 306 304 302
217 219 217 214 218 220 218 217 215 214 215 217 221 222 221 222 223 222 224 224 227 232 237 242 249 253 258 271 281 285 288 291 292 294 299 307 309 308 311 315 316 316 317 316 313 311 310 310 310 311 312 310 307 304 302 303 304 304 304 306 308 309 308 309 309 308 307 305 302 300 302 307 306 303 300 299 300 300 300 301 301 300 302 302 301
214 215 213 212 216 216 214 213 211 212 215 218 220 222 222 224 223 223 225 226 229 234 237 242 247 251 256 267 275 281 283 283 286 288 293 301 303 303 307 309 311 312 311 310 309 309 309 308 307 307 308 309 309 305 301 301 303 304 303 305 305 304 305 306 305 305 305 303 299 295 297 302 304 303 300 298 297 296 297 299 298 297 297 298 299
211 210 211 212 213 211 210 210 208 211 216 219 219 220 223 224 222 223 226 229 232 236 240 244 247 252 257 263 271 274 277 282 284 284 285 293 300 302 303 304 305 306 306 306 305 305 306 306 305 305 305 305 305 304 301 299 302 304 305 305 303 302 303 303 303 303 302 301 297 295 297 299 300 301 300 298 296 294 294 295 296 295 294 294 295
207 208 209 210 210 208 208 208 208 211 215 219 219 221 224 224 224 225 228 230 234 239 242 246 250 254 256 261 269 268 273 284 284 283 284 285 295 300 299 300 299 300 305 305 301 301 304 305 305 305 305 305 303 303 303 302 301 303 305 307 306 303 303 302 301 302 303 301 297 294 296 297 298 299 298 297 296 294 292 292 293 293 292 290 290
206 207 207 207 207 207 206 206 209 212 214 218 220 221 222 226 228 227 230 233 237 242 243 247 250 252 255 260 266 266 272 284 284 286 287 282 287 296 298 298 298 299 305 307 301 299 303 303 304 306 307 307 306 305 306 305 303 304 306 308 307 306 305 303 302 302 302 302 297 294 294 295 297 299 298 296 294 293 290 290 290 290 290 287 287
205 205 205 206 206 206 206 207 210 213 215 216 218 222 222 226 230 229 232 236 238 242 244 248 248 248 253 258 262 268 274 280 283 285 287 285 286 292 295 295 297 299 300 305 303 301 304 304 304 305 306 307 308 306 305 304 303 303 305 305 305 304 303 304 304 303 303 301 297 295 295 294 296 298 299 296 292 290 289 288 287 288 288 286 284
205 204 204 205 205 206 206 208 211 214 215 216 220 223 224 226 229 230 233 235 236 241 242 243 246 247 252 256 262 271 276 278 280 284 287 289 287 286 291 292 298 302 300 304 306 304 306 308 306 305 305 306 307 307 306 306 305 304 305 305 304 304 302 302 302 303 304 303 299 297 295 294 294 296 298 297 292 288 287 285 284 284 286 284 282
202 202 204 205 205 207 208 210 212 214 216 218 224 226 227 228 229 232 233 232 234 237 237 239 244 246 250 256 264 271 275 275 276 282 284 284 281 282 286 289 295 300 301 305 308 305 306 309 309 307 307 308 308 308 308 307 306 305 305 304 303 304 303 302 301 300 302 303 302 299 296 294 294 294 295 297 293 287 284 283 281 281 282 282 281
201 201 204 205 206 208 209 212 213 215 219 223 226 227 229 230 230 233 232 230 233 234 235 240 243 244 250 257 264 270 274 274 275 279 279 277 279 282 284 286 292 297 300 304 307 306 305 307 308 308 308 308 306 306 308 307 306 305 305 304 302 301 301 301 300 299 299 300 302 299 296 295 295 294 294 295 294 288 282 279 279 278 279 280 281
202 202 205 207 207 209 210 212 216 219 222 224 226 229 231 231 231 232 230 231 233 233 235 239 241 245 252 258 264 270 273 273 274 276 277 279 281 282 285 286 292 298 302 305 307 308 308 308 308 308 307 307 305 304 305 305 306 306 305 305 304 302 300 301 301 300 299 299 301 301 299 297 296 296 295 294 295 290 281 275 276 276 276 278 280
202 203 205 206 207 209 210 213 218 221 223 225 228 231 231 230 231 230 230 232 232 232 236 238 241 247 252 257 264 268 270 269 269 273 278 280 281 283 286 288 292 297 301 304 306 307 307 307 306 306 306 306 306 304 303 303 304 304 303 303 304 304 303 302 301 301 300 299 301 302 302 301 298 297 296 295 295 291 281 273 272 274 274 275 277
202 202 201 203 206 209 211 215 218 222 226 227 229 230 229 230 230 229 230 231 231 233 237 238 241 247 251 255 259 260 262 263 265 270 275 277 281 286 289 291 294 298 301 304 306 307 307 308 307 307 307 306 307 307 305 304 303 302 301 302 302 302 303 303 302 302 300 298 300 301 303 302 299 297 296 296 295 292 284 275 271 272 272 273 274
200 199 199 201 206 210 214 218 219 223 228 228 229 229 229 229 229 231 231 231 232 235 237 239 242 246 249 252 252 252 254 257 262 269 273 277 283 288 292 295 298 302 305 306 308 309 309 310 310 310 310 309 308 307 306 305 305 303 302 302 301 300 301 301 301 302 300 299 300 300 302 302 300 299 297 296 295 293 286 277 273 272 272 271 272
198 198 199 202 207 212 216 219 220 224 227 227 228 229 229 230 232 233 231 231 234 237 239 240 242 245 247 247 244 245 249 253 261 270 276 280 286 291 295 299 304 307 308 309 310 311 310 311 312 311 311 310 309 308 306 305 306 304 303 302 302 301 300 299 299 300 300 299 299 300 301 301 301 300 299 298 296 293 287 279 273 272 272 271 270
198 198 199 202 207 212 217 220 223 226 227 227 228 229 230 231 233 233 232 233 236 239 241 240 241 243 242 240 238 240 246 253 261 270 278 284 288 294 297 302 307 311 312 313 313 312 312 311 311 311 311 310 309 308 307 306 305 305 304 303 303 303 301 300 300 300 299 299 298 298 300 299 300 300 298 298 298 294 289 281 274 271 270 269 270
199 198 199 205 209 213 218 221 225 228 229 229 230 230 231 232 232 232 234 236 237 238 238 239 240 240 237 234 234 238 245 253 260 269 279 283 288 293 299 305 310 313 314 315 314 314 313 312 312 312 311 310 310 308 308 307 306 305 305 304 304 303 302 301 301 301 300 300 299 299 299 298 299 299 297 296 297 296 292 285 276 271 269 269 269
207 205 206 211 215 219 222 225 228 230 232 232 233 232 232 235 235 233 233 235 239 239 236 238 241 238 234 228 228 237 246 255 264 273 279 283 290 296 301 306 309 312 314 315 315 314 314 313 313 313 313 312 311 310 310 309 308 307 306 306 306 304 303 303 302 302 301 301 302 301 300 299 298 297 296 295 295 296 294 289 280 274 271 270 269
218 217 216 217 220 223 225 227 229 232 235 234 232 232 233 235 236 235 233 234 237 237 233 235 234 227 223 219 221 235 249 261 272 280 285 288 292 296 301 307 310 312 314 315 315 315 315 315 315 315 315 314 313 312 312 311 311 310 308 308 308 307 306 306 304 303 302 302 302 302 302 301 299 297 296 295 294 295 295 292 286 278 274 271 269
221 219 218 217 219 223 225 227 229 233 236 234 231 231 232 234 235 236 236 234 230 226 225 227 225 220 215 215 224 243 259 272 281 285 290 293 294 297 302 308 311 312 314 315 316 316 316 316 317 318 317 317 316 315 314 314 313 313 312 311 310 308 308 308 307 306 305 305 304 303 303 302 301 299 297 295 293 294 294 292 289 283 278 274 270
222 219 219 219 221 224 224 226 231 235 234 233 232 232 233 234 233 236 237 233 226 223 224 225 227 226 221 225 242 257 269 281 289 291 294 296 297 301 306 309 311 313 315 316 316 317 318 318 319 320 320 319 319 318 318 318 316 316 315 314 313 311 310 310 309 309 309 309 307 304 304 304 302 301 299 297 296 294 293 292 290 286 282 277 273
220 220 220 221 225 228 227 228 233 235 233 231 234 236 234 232 231 233 232 229 228 227 228 228 229 229 229 242 259 269 279 287 292 296 297 299 301 304 308 311 312 313 315 316 318 319 320 320 321 322 322 322 321 321 321 321 319 319 318 317 316 316 315 313 312 312 311 311 309 307 306 305 304 302 301 299 298 295 293 293 291 288 285 280 275
223 224 224 224 229 231 230 232 233 235 234 231 232 230 226 225 224 225 224 225 227 229 232 231 227 228 238 256 269 276 283 288 293 296 298 300 302 305 307 310 312 313 315 317 318 321 322 322 323 323 323 323 323 323 323 322 320 320 319 318 318 318 318 317 316 316 313 312 312 311 310 308 306 304 303 302 300 297 295 294 292 290 286 282 277
229 229 229 229 231 231 229 232 233 233 233 230 227 222 218 218 216 217 219 220 222 223 220 215 217 232 252 265 274 281 285 290 295 296 298 300 301 303 306 308 311 312 314 317 318 320 323 324 324 324 324 324 324 324 324 324 322 321 319 317 317 317 316 317 318 318 316 313 313 313 312 311 309 307 305 304 302 301 298 296 294 291 288 284 281
231 231 230 229 229 227 228 232 232 230 231 227 223 220 218 216 212 212 213 213 216 212 203 207 224 247 261 269 278 284 288 292 296 298 299 301 303 305 306 308 310 313 316 318 319 320 322 323 323 324 324 324 324 323 323 324 323 321 319 318 316 315 315 317 318 317 316 314 313 312 311 311 311 309 308 306 304 302 301 298 296 292 288 286 284
228 228 227 225 223 223 225 228 229 227 226 223 220 217 214 210 207 208 208 209 212 207 207 223 242 254 264 272 279 286 292 294 298 301 302 304 307 308 309 309 311 314 317 319 320 320 320 321 322 322 322 322 322 322 322 322 322 321 320 318 315 313 313 316 316 314 314 314 313 312 310 310 309 309 309 308 306 304 302 300 298 295 291 287 286
222 222 222 220 219 221 223 225 226 224 221 218 215 213 210 206 205 206 209 210 208 208 218 236 248 256 266 274 279 285 294 298 300 304 305 306 307 309 311 312 312 314 315 318 319 320 319 319 320 320 320 320 320 320 320 320 319 318 319 318 316 314 313 314 313 312 312 312 313 313 310 309 308 308 308 308 307 305 303 301 299 298 295 290 287
216 216 216 216 219 222 223 224 223 220 217 212 209 208 207 206 207 206 205 204 205 214 230 242 251 259 266 274 279 285 293 299 302 304 307 309 309 311 312 313 313 314 315 316 317 318 319 318 318 317 317 317 317 317 316 316 316 315 315 315 315 315 315 314 313 312 312 311 312 313 312 311 309 307 307 307 306 306 304 302 300 299 298 294 290
211 211 211 212 216 219 221 222 221 217 212 207 204 204 203 203 202 197 195 202 215 228 238 244 253 260 265 274 281 288 294 298 301 305 308 311 313 314 314 313 313 314 315 316 316 317 318 318 317 317 317 317 316 315 313 313 313 312 312 312 312 313 314 314 314 314 313 312 312 312 312 312 310 308 308 306 305 305 304 303 301 299 297 295 292
205 204 205 206 209 211 213 214 213 211 206 200 197 196 196 195 193 193 202 219 231 237 240 245 253 260 266 273 280 287 292 297 301 306 308 311 313 314 314 314 315 315 315 315 316 316 317 318 317 316 317 317 316 315 314 312 312 311 311 311 311 312 312 312 313 313 312 311 310 311 311 312 311 310 310 308 306 304 303 302 301 299 298 295 293
199 199 198 198 200 202 202 199 199 199 195 192 189 188 189 190 194 204 221 234 236 236 240 245 253 261 267 274 282 287 292 295 299 303 307 310 312 313 314 315 316 316 315 316 316 317 317 317 317 317 317 318 318 317 315 313 313 312 312 311 311 312 311 310 311 311 309 308 308 308 309 310 310 309 309 309 307 305 302 300 298 298 297 295 293